Home > Weather > Jackson > Past weeks

Flag for U.S.A. Weather for the Past 2 Weeks in Jackson, Mississippi, U.S.A.

Now
51 °F

Clear.


Feels Like: 51 °F
Forecast: 29 / 58 °F
Wind: 3 mph from North

Location: Hawkins Field

Current Time: Feb 6, 2016 at 6:43:07 PM

Latest Report: Feb 6, 2016 at 5:53 PM


Visibility: 10 mi

Pressure: 30.27 "Hg

Humidity: 25%

Dew point: 16 °F

Location of JacksonLocation

Historic Weather in Jackson — Graph

°F

Jackson Temperature Yesterday

Maximum temperature yesterday: 53 °F (at 3:53 PM)
Minimum temperature yesterday: 27 °F (at 6:53 AM)
Average temperature yesterday: 40 °F

High & Low Weather Summary for the Past Weeks

 TemperatureHumidityPressure
High75 °F (Feb 1, 2:53 PM)100% (Feb 3, 2:53 AM)30.51 "Hg (Feb 3, 2:53 AM)
Low23 °F (Jan 24, 3:53 AM)23% (Feb 5, 3:53 PM)29.65 "Hg (Feb 2, 3:53 PM)
Average49 °F68%30.08 "Hg
* Reported Jan 22 4:53 PM — Feb 6 4:53 PM, Jackson, Weather by CustomWeather, © 2016

Note: Actual official high and low records may vary slightly from our data, if they occured in-between our weather recording intervals... More about our weather records

Advertising

Jackson Weather History for the Previous 24 Hours

 ConditionsComfort  
Time TempWeatherWind HumidityBarometerVisibility
4:53 PM
Sat, Feb 6
54 °FSunny.7 mph23%30.26 "Hg10 mi
3:53 PM56 °FSunny.7 mph23%30.26 "Hg10 mi
2:53 PM55 °FSunny.No wind23%30.26 "Hg10 mi
1:53 PM55 °FSunny.9 mph24%30.27 "Hg10 mi
12:53 PM55 °FSunny.6 mph23%30.29 "Hg10 mi
11:53 AM52 °FSunny.6 mph28%30.33 "Hg10 mi
10:53 AM51 °FSunny.5 mph31%30.34 "Hg10 mi
9:53 AM49 °FSunny.7 mph35%30.35 "Hg10 mi
8:53 AM44 °FSunny.6 mph53%30.36 "Hg10 mi
7:53 AM38 °FSunny.3 mph83%30.36 "Hg10 mi
6:53 AM37 °FSunny.No wind79%30.35 "Hg10 mi
5:53 AM36 °FClear.No wind82%30.34 "Hg10 mi
4:53 AM36 °FClear.No wind82%30.34 "Hg10 mi
3:53 AM35 °FClear.No wind78%30.34 "Hg10 mi
2:53 AM35 °FClear.No wind75%30.35 "Hg10 mi
1:53 AM35 °FClear.No wind75%30.35 "Hg10 mi
12:53 AM35 °FClear.No wind75%30.37 "Hg10 mi
11:53 PM
Fri, Feb 5
37 °FClear.No wind70%30.37 "Hg10 mi
10:53 PM38 °FClear.No wind70%30.38 "Hg10 mi
9:53 PM40 °FClear.No wind60%30.38 "Hg10 mi
8:53 PM40 °FClear.No wind58%30.37 "Hg10 mi
7:53 PM40 °FClear.N/A58%30.37 "Hg9 mi
6:53 PM44 °FClear.No wind43%30.38 "Hg10 mi
Weather by CustomWeather, © 2016

See weather overviewHow to use our weather pages